Regional Weather Roundup
Issued by NWS

Home | Current Version | Previous Version | Text Only | Print | Product List | Glossary On
Versions: 1 2 3 4 5 6 7 8 9 10 11 12 13 14 15 16 17 18 19 20 21 22 23 24 25 26 27 28 29 30 31 32 33 34 35 36 37 38 39 40 41 42 43 44 45 46 47 48 49 50
000
ASUS43 KLMK 242010
RWRKY
KENTUCKY REGIONAL WEATHER ROUNDUP
NATIONAL WEATHER SERVICE LOUISVILLE KY
300 PM EST TUE JAN 24 2017

NOTE "FAIR" INDICATES FEW OR NO CLOUDS BELOW 12,000 FEET
WITH NO SIGNIFICANT WEATHER AND/OR OBSTRUCTIONS TO VISIBILITY.

KYZ001>023-026-027-061>063-070>075-242100-
WESTERN AND SOUTH CENTRAL KENTUCKY

CITY           SKY/WX    TMP DP  RH WIND       PRES   REMARKS
PADUCAH        SUNNY     53  35  50 SE7       29.84F
HENDERSON      PTSUNNY   46  34  61 S5        29.87F
OWENSBORO      CLOUDY    44  36  73 S3        29.89F
HOPKINSVILLE   SUNNY     52  34  50 VRB5      29.86F
BOWLING GREEN  MOSUNNY   48  35  60 SW8       29.89S
GLASGOW        CLOUDY    44  36  72 SW5       29.88S
$$

KYZ024-025-028>034-038-045-046-053-242100-
NORTH CENTRAL KENTUCKY

CITY           SKY/WX    TMP DP  RH WIND       PRES   REMARKS
LOUISVILLE/SDF MOSUNNY   49  32  52 VRB3      29.85F
LOUISVILLE/LOU MOSUNNY   47  33  58 VRB3      29.86F
FORT KNOX      SUNNY     48  35  60 VRB5      29.85S
$$

KYZ035>037-039>044-047>052-055>060-089>105-242100-
NORTHEAST KENTUCKY

CITY           SKY/WX    TMP DP  RH WIND       PRES   REMARKS
LEXINGTON      CLOUDY    44  35  70 W7        29.85S
COVINGTON      CLOUDY    43  35  73 W12       29.83R
FRANKFORT      CLOUDY    45  33  63 NW7       29.84S
$$

KYZ054-064>069-076>088-106>120-242100-
SOUTHEAST KENTUCKY

CITY           SKY/WX    TMP DP  RH WIND       PRES   REMARKS
JACKSON        CLOUDY    40  38  93 CALM      29.83F
LONDON         CLOUDY    41  35  79 SW8       29.85F
SOMERSET       CLOUDY    41  34  75 CALM      29.87F
MIDDLESBORO    CLOUDY    44  38  80 CALM      29.85F
MONTICELLO     CLOUDY    42  34  73 VRB6      29.88F
$$




USA.gov is the U.S. government's official web portal to all federal, state and local government web resources and services.